Regional Weather Roundup
Issued by NWS Albany, NY

Home | Current Version | Previous Version | Graphics & Text | Print | Product List | Glossary On
Versions: 1 2 3 4 5 6 7 8 9 10 11 12 13 14 15 16 17 18 19 20 21 22 23 24 25 26 27 28 29 30 31 32 33 34 35 36 37 38 39 40 41 42 43 44 45 46 47 48 49 50
000
ASUS41 KALY 181310
RWRALY

NEW YORK STATE HOURLY WEATHER ROUNDUP
NATIONAL WEATHER SERVICE ALBANY NY
800 AM EST THU DEC 18 2014

NOTE: "FAIR" INDICATES FEW OR NO CLOUDS BELOW 12,000 FEET WITH NO
SIGNIFICANT WEATHER AND/OR NO OBSTRUCTIONS TO VISIBILITY.

NYZ032-033-038>043-046>054-057>066-NYZ062>081-181400-
EAST


CITY           SKY/WX    TMP DP  RH WIND       PRES   REMARKS
ALBANY         CLOUDY    35  26  69 NW15G22   29.90R WCI  25
GLENS FALLS    CLOUDY    33  31  92 CALM      29.84R
POUGHKEEPSIE   CLOUDY    38  22  52 W12       29.93R WCI  30
NEWBURGH       MOCLDY    36  25  64 NW21G32   29.92S WCI  24
MONTGOMERY     CLOUDY    36  23  59 NW9G23    29.94R WCI  29
WHITE PLAINS   MOCLDY    36  23  59 W16G23    29.91S WCI  26
ISLIP          PTCLDY    38  23  55 NW15G26   29.91R WCI  29
NEW YORK CITY  PTCLDY    38  23  55 NW20G29   29.96R WCI  28
CENTRAL PARK   MOCLDY    38  21  50 NW9G16    29.98S WCI  31
$$

NYZ005>009-017-018-044>046-055-056-181400-
CENTRAL


CITY           SKY/WX    TMP DP  RH WIND       PRES   REMARKS
FULTON         SNOW      33  30  88 W16       30.00R VSB 1/2 WCI  23
SYRACUSE       CLOUDY    31  27  85 W18       30.00R WCI  19
ROME           LGT SNOW  31  28  89 W16       29.98R FOG     WCI  20
ELMIRA         CLOUDY    32  23  69 W14       30.04R WCI  22
BINGHAMTON     CLOUDY    28  22  78 NW15G23   29.95R WCI  16
MONTICELLO     CLOUDY    30  23  74 NW15G32   29.92S WCI  19
$$

NYZ026>034-041>043-181400-
NORTH


CITY           SKY/WX    TMP DP  RH WIND       PRES   REMARKS
WATERTOWN      CLOUDY    34  26  72 W12       29.97R WCI  25
FORT DRUM      NOT AVBL
MASSENA        LGT SNOW  32  29  88 W14       29.90R FOG     WCI  22
SARANAC LAKE   LGT SNOW  29  26  89 W5        29.79R FOG     WCI  24
PLATTSBURGH    CLOUDY    34  33  96 CALM      29.82R
$$

NYZ001>004-010>016-019>021-181400-
WEST


CITY           SKY/WX    TMP DP  RH WIND       PRES   REMARKS
NIAGARA FALLS  CLOUDY    30  26  85 W13G23    30.08R WCI  20
BUFFALO        CLOUDY    30  26  85 W14       30.08R WCI  19
DUNKIRK        CLOUDY    32  26  78 W12G21    30.12S WCI  23
JAMESTOWN      CLOUDY    27  21  80 NW9       30.07S WCI  17
WELLSVILLE     CLOUDY    26  21  81 NW17G26   30.02R WCI  13
ROCHESTER      CLOUDY    31  27  85 W15G21    30.05R WCI  20
PENN YAN       CLOUDY    32  23  69 W9G24     30.03R WCI  24
$$

             KEY
       WCI = WIND CHILL INDEX
       VSB = VISIBILITY
       HX  = HEAT INDEX
$$


USA.gov is the U.S. government's official web portal to all federal, state and local government web resources and services.